Location: ??
(35.5052°N, 139.7262°E)
Time: 18:29:40
(UTC+00:00)

ADEOS Rocket - Pass Details

Date: 20 June 2021
Orbit: 858 x 1307 km, 98.7° (Epoch: 29 July)

Event Time Altitude Azimuth Distance (km) Brightness Sun altitude
Exits shadow 16:48:05 19° 154° (SSE) 2,589 4.9 -24.0°
Maximum altitude 16:53:41 72° 74° (ENE) 1,235 3.6 -23.4°
Drops below altitude 10° 17:00:26 10° 352° (N) 2,950 6.1 -22.7°
Sets 17:02:51 0° 350° (N) 3,849 6.8 -22.4°
